Location: Spruce Knob
(38.6995°N, 79.5330°W)
Time: 20:50:25
(UTC-04:00)

Transit 2A - Pass Details

Date: 15 August 2022
Orbit: 601 x 956 km, 66.7° (Epoch: 27 September)

Event Time Altitude Azimuth Distance (km) Brightness Sun altitude
Rises 21:13:00 0° 327° (NNW) 2,865 10.2 -11.7°
Reaches altitude 10° 21:15:14 10° 323° (NW) 1,975 9.3 -12.1°
Maximum altitude 21:19:33 56° 245° (WSW) 757 6.2 -12.8°
Drops below altitude 10° 21:24:09 10° 167° (SSE) 2,098 7.9 -13.6°
Enters shadow 21:24:19 - 167° (SSE) 2,159 7.9 -13.6°
